TimeCST,TemperatureF,Dew PointF,Humidity,Sea Level PressureIn,VisibilityMPH,Wind Direction,Wind SpeedMPH,Gust SpeedMPH,PrecipitationIn,Events,Conditions,WindDirDegrees,DateUTC
12:14 AM,17.6,15.8,93,30.01,10.0,West,3.5,-,N/A,,Overcast,280,2012-12-29 06:14:00
12:34 AM,17.6,15.8,93,30.01,10.0,West,3.5,-,N/A,,Overcast,260,2012-12-29 06:34:00
12:54 AM,17.6,15.8,93,30.01,10.0,West,3.5,-,N/A,,Overcast,280,2012-12-29 06:54:00
1:14 AM,17.6,15.8,93,30.00,10.0,Calm,Calm,-,N/A,,Overcast,0,2012-12-29 07:14:00
1:33 AM,17.6,15.8,93,30.00,10.0,West,3.5,-,N/A,,Overcast,280,2012-12-29 07:33:00
1:54 AM,17.6,15.8,93,30.00,10.0,West,3.5,-,N/A,,Overcast,280,2012-12-29 07:54:00
2:14 AM,17.6,15.8,93,30.01,10.0,West,3.5,-,N/A,Snow,Light Snow,280,2012-12-29 08:14:00
2:34 AM,17.6,17.6,100,30.01,10.0,West,5.8,-,N/A,,Overcast,270,2012-12-29 08:34:00
2:54 AM,17.6,17.6,100,30.01,10.0,West,6.9,-,N/A,Snow,Light Snow,270,2012-12-29 08:54:00
3:14 AM,17.6,17.6,100,30.01,10.0,West,3.5,-,N/A,Snow,Light Snow,270,2012-12-29 09:14:00
3:34 AM,19.4,17.6,93,30.02,10.0,West,5.8,-,N/A,,Overcast,260,2012-12-29 09:34:00
3:54 AM,19.4,17.6,93,30.02,10.0,West,4.6,-,N/A,,Overcast,260,2012-12-29 09:54:00
4:14 AM,19.4,17.6,93,30.02,10.0,West,5.8,-,N/A,Snow,Light Snow,270,2012-12-29 10:14:00
4:34 AM,19.4,17.6,93,30.02,10.0,West,6.9,-,N/A,Snow,Light Snow,270,2012-12-29 10:34:00
4:54 AM,19.4,17.6,93,30.02,10.0,WNW,5.8,-,N/A,Snow,Light Snow,290,2012-12-29 10:54:00
5:14 AM,19.4,17.6,93,30.02,10.0,WNW,5.8,-,N/A,Snow,Light Snow,300,2012-12-29 11:14:00
5:34 AM,19.4,17.6,93,30.03,10.0,WNW,5.8,-,N/A,,Overcast,300,2012-12-29 11:34:00
5:54 AM,19.4,15.8,86,30.03,10.0,WNW,5.8,-,N/A,,Overcast,300,2012-12-29 11:54:00
6:14 AM,19.4,17.6,93,30.03,10.0,West,5.8,-,N/A,,Overcast,260,2012-12-29 12:14:00
6:34 AM,19.4,17.6,93,30.03,10.0,West,6.9,-,N/A,Snow,Light Snow,270,2012-12-29 12:34:00
6:45 AM,19.4,17.6,93,30.03,10.0,West,5.8,-,N/A,,Overcast,270,2012-12-29 12:45:00
6:54 AM,19.4,15.8,86,30.04,10.0,West,5.8,-,N/A,,Overcast,260,2012-12-29 12:54:00
7:45 AM,17.6,15.8,93,30.04,10.0,West,8.1,-,N/A,,Overcast,260,2012-12-29 13:45:00
8:45 AM,14.0,10.4,86,30.06,10.0,WSW,8.1,-,N/A,,Overcast,250,2012-12-29 14:45:00
9:45 AM,14.0,10.4,86,30.07,7.0,West,5.8,-,N/A,Snow,Light Snow,270,2012-12-29 15:45:00
10:18 AM,15.8,10.4,79,30.08,4.0,West,5.8,-,N/A,Snow,Light Snow,260,2012-12-29 16:18:00
10:45 AM,15.8,12.2,86,30.08,2.5,WSW,9.2,-,N/A,Snow,Light Snow,240,2012-12-29 16:45:00
11:50 AM,15.8,10.4,79,30.08,7.0,WSW,10.4,-,N/A,Snow,Light Snow,240,2012-12-29 17:50:00
12:10 PM,15.8,10.4,79,30.07,10.0,West,5.8,-,N/A,,Scattered Clouds,260,2012-12-29 18:10:00
12:55 PM,17.6,10.4,73,30.05,10.0,SW,5.8,-,N/A,,Partly Cloudy,230,2012-12-29 18:55:00
1:45 PM,17.6,10.4,73,30.04,10.0,West,8.1,-,N/A,,Scattered Clouds,270,2012-12-29 19:45:00
2:45 PM,17.6,12.2,79,30.05,10.0,West,8.1,-,N/A,,Overcast,260,2012-12-29 20:45:00
3:45 PM,17.6,12.2,79,30.06,10.0,WSW,6.9,-,N/A,,Overcast,240,2012-12-29 21:45:00
5:50 PM,15.8,10.4,79,30.08,10.0,WSW,8.1,-,N/A,,Overcast,240,2012-12-29 23:50:00
6:45 PM,12.2,8.6,85,30.10,10.0,SW,5.8,-,N/A,,Clear,230,2012-12-30 00:45:00
7:45 PM,10.4,6.8,85,30.11,10.0,WSW,6.9,-,N/A,,Clear,240,2012-12-30 01:45:00
8:50 PM,8.6,6.8,92,30.12,10.0,WSW,4.6,-,N/A,,Clear,240,2012-12-30 02:50:00
9:14 PM,8.6,6.8,92,30.12,10.0,WSW,3.5,-,N/A,,Clear,240,2012-12-30 03:14:00
9:34 PM,8.6,5.0,85,30.13,10.0,WSW,5.8,-,N/A,,Clear,240,2012-12-30 03:34:00
9:54 PM,8.6,5.0,85,30.13,10.0,WSW,4.6,-,N/A,,Clear,250,2012-12-30 03:54:00
10:14 PM,6.8,3.2,85,30.14,10.0,WSW,4.6,-,N/A,,Clear,240,2012-12-30 04:14:00
10:34 PM,6.8,3.2,85,30.14,10.0,WSW,5.8,-,N/A,,Clear,240,2012-12-30 04:34:00
10:53 PM,6.8,3.2,85,30.15,10.0,WSW,5.8,-,N/A,,Clear,240,2012-12-30 04:53:00
11:14 PM,6.8,3.2,85,30.16,10.0,WSW,5.8,-,N/A,,Clear,240,2012-12-30 05:14:00
11:34 PM,6.8,3.2,85,30.15,10.0,WSW,4.6,-,N/A,,Clear,240,2012-12-30 05:34:00
11:54 PM,6.8,3.2,85,30.15,10.0,Calm,Calm,-,N/A,,Clear,0,2012-12-30 05:54:00